Location: ???????
(55.4362°N, 38.1183°E)
Time: 15:57:29
(UTC+00:00)

FENGYUN 1C DEB - Pass Details

Date: 05 February 2022
Orbit: 807 x 954 km, 100.9° (Epoch: 15 May)

Event Time Altitude Azimuth Distance (km) Brightness Sun altitude
Rises 01:12:26 0° 17° (NNE) 3,434 ? -33.8°
Reaches altitude 10° 01:14:58 10° 8° (N) 2,517 ? -33.5°
Enters shadow 01:16:55 20° 355° (N) 1,912 ? -33.3°
